Flag for Kazakhstan Weather past 2 weeks in Shymkent, Kazakhstan

Now
82 °F

Sunny.


Feels Like: 81 °F
Forecast: 59 / 87 °F
Wind: 10 mph from Northeast

Location: Shymkent Airport

Current Time: May 26, 2015 at 3:02:43 PM

Latest Report: May 26, 2015 at 2:30 PM


Visibility: 10 mi

Pressure: 30.04 "Hg

Humidity: 28%

Dew point: 46 °F

Location of ShymkentLocation

Historic Weather in Shymkent — Graph

°F

Shymkent temperature yesterday

Maximum temperature yesterday: 79 °F (at 3:00 PM)
Minimum temperature yesterday: 50 °F (at 2:30 AM)
Average temperature yesterday: 65 °F

Past Weeks' High & Low Weather Summary

 TemperatureHumidityPressure
High93 °F (May 15, 1:30 PM)100% (May 12, 4:30 AM)30.15 "Hg (May 12, 4:30 AM)
Low48 °F (May 22, 4:00 AM)17% (May 22, 7:00 PM)29.62 "Hg (May 16, 3:00 AM)
Average69 °F54%29.97 "Hg
* Reported May 11 2:00 PM — May 26 2:00 PM, Shymkent, Weather by CustomWeather, © 2015

Note: Actual official high and low records may vary slightly from our data, if they occured in-between our weather recording intervals... More about our weather records

Advertising

Shymkent weather history for previous 24 hours

 ConditionsComfort  
Time TempWeatherWind HumidityBarometerVisibility
2:00 PM
Tue, May 26
81 °FSunny.10 mph26%30.07 "Hg10 mi
1:30 PM81 °FSunny.10 mph28%30.07 "Hg10 mi
1:00 PM81 °FPassing clouds.6 mph30%30.07 "HgN/A
12:30 PM81 °FSunny.3 mph28%30.07 "Hg10 mi
12:00 PM79 °FPassing clouds.3 mph32%30.09 "HgN/A
11:30 AM79 °FSunny.1 mph28%30.09 "Hg10 mi
11:00 AM79 °FSunny.1 mph30%30.09 "Hg10 mi
10:30 AM77 °FSunny.1 mph34%30.09 "Hg10 mi
10:00 AM75 °FSunny.1 mph39%30.09 "Hg10 mi
9:30 AM72 °FSunny.No wind44%30.09 "Hg10 mi
8:30 AM70 °FSunny.1 mph46%30.09 "Hg10 mi
8:00 AM64 °FSunny.6 mph60%30.09 "Hg10 mi
7:30 AM61 °FSunny.3 mph63%30.09 "Hg10 mi
7:00 AM55 °FSunny.3 mph77%30.09 "Hg10 mi
6:30 AM54 °FSunny.6 mph77%30.09 "Hg10 mi
6:00 AM54 °FSunny.8 mph77%30.09 "Hg10 mi
5:30 AM55 °FClear.1 mph72%30.09 "Hg10 mi
5:00 AM55 °FClear.1 mph72%30.09 "Hg10 mi
4:30 AM55 °FClear.6 mph72%30.09 "Hg10 mi
4:00 AM57 °FClear.6 mph72%30.09 "Hg10 mi
3:30 AM57 °FClear.6 mph72%30.09 "Hg10 mi
2:30 AM57 °FClear.6 mph72%30.09 "Hg10 mi
2:00 AM57 °FClear.6 mph72%30.09 "Hg10 mi
1:30 AM57 °FClear.8 mph72%30.09 "Hg10 mi
1:00 AM59 °FClear.6 mph72%30.09 "Hg10 mi
12:30 AM61 °FClear.6 mph63%30.09 "Hg10 mi
12:00 AM61 °FClear.8 mph63%30.09 "Hg10 mi
11:30 PM
Mon, May 25
59 °FClear.6 mph68%30.12 "Hg10 mi
11:00 PM64 °FPassing clouds.3 mph56%30.12 "HgN/A
10:30 PM64 °FClear.3 mph56%30.12 "Hg10 mi
10:00 PM66 °FClear.3 mph52%30.12 "Hg10 mi
9:30 PM68 °FClear.1 mph46%30.12 "Hg10 mi
9:00 PM72 °FClear.No wind36%30.12 "Hg10 mi
8:30 PM75 °FSunny.No wind29%30.09 "Hg10 mi
8:00 PM77 °FSunny.1 mph30%30.09 "Hg10 mi
7:30 PM77 °FSunny.3 mph28%30.09 "Hg10 mi
7:00 PM79 °FPassing clouds.6 mph26%30.09 "HgN/A
6:30 PM79 °FSunny.6 mph28%30.09 "Hg10 mi
6:00 PM79 °FPassing clouds.8 mph23%30.09 "HgN/A
5:30 PM79 °FPassing clouds.8 mph24%30.09 "HgN/A
5:00 PM79 °FPassing clouds.8 mph26%30.09 "HgN/A
4:30 PM79 °FSunny.13 mph26%30.09 "Hg10 mi
4:00 PM79 °FPassing clouds.6 mph28%30.09 "HgN/A
3:30 PM79 °FSunny.3 mph37%30.09 "Hg10 mi
3:00 PM79 °FSunny.3 mph32%30.09 "Hg10 mi
Weather by CustomWeather, © 2015

See weather overviewHow to use our weather pages